Regional Weather Roundup
Issued by NWS Wakefield, VA

Home | Current Version | Previous Version | Graphics & Text | Print | Product List | Glossary On
Versions: 1 2 3 4 5 6 7 8 9 10 11 12 13 14 15 16 17 18 19 20 21 22 23 24 25 26 27 28 29 30 31 32 33 34 35 36 37 38 39 40 41 42 43 44 45 46 47 48
000
ASUS41 KAKQ 251210
RWRAKQ

REGIONAL WEATHER ROUNDUP
NATIONAL WEATHER SERVICE WAKEFIELD VA
700 AM EST THU DEC 25 2014

Note: "fair" indicates few or no clouds below 12,000 feet with no
significant weather and/or obstructions to visibility. * = Denotes
station may not report precipitation (e.g., rain,snow,etc.),
thunder or fog.

VAZ042-051-052>054-056-251300-
NORTHERN VIRGINIA

CITY           SKY/WX    TMP DP  RH WIND       PRES   REMARKS
WASH NATIONAL  CLOUDY    51  40  65 NW13      29.77R
DULLES         CLOUDY    47  37  68 NW5       29.77R
FORT BELVOIR   CLOUDY    49  42  78 NW10      29.77R
QUANTICO       CLOUDY    51  42  71 N7        29.79R
FREDERICKSBRG* CLOUDY    52  52  98 CALM      29.77R
STAFFORD*      CLOUDY    48  48 100 CALM      29.81R
WARRENTON      CLOUDY    50  41  71 W13G18    29.77R
CULPEPER*      CLOUDY    52  36  54 W3        29.78R
MANASSAS*      NOT AVBL
LEESBURG*      CLOUDY    46  37  71 NW20G26   29.77R
WINCHESTER     CLOUDY    46  30  53 W14G20    29.77S
FRONT ROYAL*   CLOUDY    46  32  57 W7        29.78R
LURAY*         CLOUDY    48  34  57 W14       29.81R
$$

VAZ048-049-060>072-079>083-251300-
CENTRAL AND SOUTH CENTRAL VIRGINIA

CITY           SKY/WX    TMP DP  RH WIND       PRES   REMARKS
RICHMOND       CLOUDY    56  44  64 W18       29.79R
CHESTERFIELD*  CLOUDY    54  39  58 W9        29.80R
PETERSBURG*    CLOUDY    55  47  74 W8        29.80R
HANOVER        CLOUDY    53  45  74 W10       29.80R
TAPPAHANNOCK*  CLOUDY    56  48  72 W8        29.75R
QUINTON*       CLOUDY    55  51  85 W10       29.77R
CHARLOTTSVILLE CLOUDY    50  33  52 N12       29.80R
GORDONSVILLE*  CLOUDY    50  34  53 W5        29.79R
ORANGE*        CLOUDY    50  37  62 SW7       29.80R
LOUISA*        CLOUDY    50  43  76 W6        29.79R
BUMPASS*       CLOUDY    50  42  73 W6        29.79R
FARMVILLE*     CLOUDY    51  39  63 W6        29.79R
CREWE*         CLOUDY    51  40  67 W6        29.79R
FORT PICKETT*  CLOUDY    50  42  74 W9        29.80R
CHASE CITY*    CLOUDY    51  41  69 W7G16     29.86R
CLARKSVILLE*   CLOUDY    50  41  71 W8        29.86R
SOUTH HILL*    CLOUDY    50  39  67 W7G17     29.88R
LAWRENCEVILLE* CLOUDY    51  44  76 W3        29.79R
EMPORIA*       CLOUDY    52  43  71 W7G20     29.82R
$$

VAZ088>098-251300-
SOUTHEAST VIRGINIA

CITY           SKY/WX    TMP DP  RH WIND       PRES   REMARKS
NORFOLK        CLOUDY    62  59  90 W7        29.74R
VIRGINIA BEACH CLOUDY    65  62  90 SW10      29.74R
NORFOLK NAVAL  CLOUDY    64  59  83 SW6       29.75R
WEST POINT*    CLOUDY    60  54  80 W7        29.75R
SALUDA*        FAIR      59  55  88 W8        29.72R
NEWPORT NEWS   CLOUDY    63  56  78 W15G23    29.75R
LANGLEY AFB    CLOUDY    61  57  87 W14       29.73R
FORT EUSTIS    CLOUDY    57 N/A N/A W6        29.74R
WILLIAMSBURG*  CLOUDY    61  55  82 W8        29.76R
HR EXEC AP*    CLOUDY    63  57  82 W16G22    29.77R
FRANKLIN*      CLOUDY    59  48  67 W17G33    29.80R
WAKEFIELD      CLOUDY    57  52  83 W8        29.77R
$$

VAZ020-022-025-037-045-251300-
WEST CENTRAL AND SOUTHWEST VIRGINIA

CITY           SKY/WX    TMP DP  RH WIND       PRES   REMARKS
STAUNTON*      CLOUDY    46  31  56 W9G22     29.84R
WAYNESBORO*    CLOUDY    44  32  63 W12G20    29.82R
HOT SPRINGS VA CLOUDY    33  30  88 W22G38    29.76R WCI  21
LYNCHBURG      CLOUDY    46  36  68 CALM      29.86R
DANVILLE       CLOUDY    47  39  74 W7        29.89R
SOUTH BOSTON*  CLOUDY    48  39  71 W6        29.87R
MARTINSVILLE   CLOUDY    46  37  69 CALM      29.93R
ROANOKE        MOCLDY    45  32  60 W18G29    29.89R
BLACKSBURG     MOCLDY    38  31  76 W8        29.92R
DUBLIN*        CLOUDY    40  34  77 W13       29.92R
MARION*        CLOUDY    38  31  77 W25G37    29.92R
HILLSVILLE*    CLOUDY    37  32  84 NW14G28   29.88R
RICHLANDS*     PTSUNNY   34  28  77 W12       29.95R
WISE*          CLOUDY    36  32  87 W9        29.98R
ABINGDON*      CLOUDY    40  32  75 W9G17     29.98R
$$

MDZ021>025-VAZ099-100-251300-
SOUTHERN MARYLAND AND THE DELMARVA PENINSULA

CITY           SKY/WX    TMP DP  RH WIND       PRES   REMARKS
PATUXENT RIVER CLOUDY    51  45  79 NW10      29.74R
BAY BRIDGE APT   N/A     48  41  76 NW12G17   29.74R
LEONARDTOWN    CLOUDY    50  45  81 CALM      29.76R
DOVER          CLOUDY    51  45  80 W9        29.68R
GEORGETOWN     CLOUDY    56  50  80 VRB5      29.73R
EASTON         CLOUDY    50  48  93 NW12G18   29.76R
CAMBRIDGE      CLOUDY    52  46  82 N7        29.73R
SALISBURY      CLOUDY    58  54  86 NW21G26   29.71R
OCEAN CITY     CLOUDY    58  57  97 W6        29.70R
WALLOPS ISLAND CLOUDY    60  57  89 W7        29.72R
ACCOMACK*      CLOUDY    61  54  77 SW6       29.69F
$$

NCZ012>017-030>032-251300-
NORTH CENTRAL AND EASTERN NORTH CAROLINA

CITY           SKY/WX    TMP DP  RH WIND       PRES   REMARKS
ROANOKE RAPIDS CLOUDY    54  46  76 NW8       29.83R
RALEIGH        CLOUDY    53  41  63 NW3       29.86R
ELIZABETH CITY CLOUDY    67  62  84 SW13      29.77R
AHOSKIE*       CLOUDY    58  53  81 CALM      29.82R
EDENTON*       CLOUDY    63  58  83 SW10      29.77R
CURRITUCK*     CLOUDY    64  62  91 SW7       29.77R
KILL DEVIL HLS CLOUDY    63  62  99 SW7       29.78R
MANTEO         CLOUDY    61  59  94 SW9       29.80R
CAPE HATTERAS  CLOUDY    60  60 100 SW13      29.81R FOG
TARBORO*       CLOUDY    60  51  73 W10G18    29.84R
GOLDSBORO      CLOUDY    57  56  97 W16G26    29.85R
WASHINGTON     CLOUDY    61  47  60 W17G26    29.81R
GREENVILLE     CLOUDY    59  50  72 W10       29.86R
NEW BERN       CLOUDY    64  46  52 W16G25    29.86R
WILMINGTON     CLOUDY    58  48  69 W15       29.89R
$$

VAZ048-251300-
ELSEWHERE

CITY           SKY/WX    TMP DP  RH WIND       PRES   REMARKS
HARRISBURG PA  CLOUDY    45  36  70 W8        29.73R
BALTIMORE      CLOUDY    48  39  71 W13       29.74R
ANNAPOLIS      CLOUDY    50  39  66 NW12      29.74R
ANDREWS AFB    CLOUDY    49  41  74 NW13      29.76R
PHILADELPHIA   CLOUDY    51  40  65 W13G22    29.70R
HENDERSON NC   CLOUDY    50  38  63 W5        29.88R
GREENSBORO     CLOUDY    47  37  68 W9        29.90R
ROCKY MOUNT    CLOUDY    58  50  75 W10       29.85R
$$

VAZ100-251300-
MARINE

STATION/POSITION TIME  TEMP    WIND        PRES    WAVE   SWELL
                       AIR SEA DIR/SP/G            HT/PER HT/PER
                 (UTC) (F)     (DEG/KT/KT) (MB)    (FT/S) (FT/S)
CAPE MAY NJ      1200   47 47  310/  4/  8 1005.6R
LEWES DE         1200   51 45  310/ 12/ 16 1006.4R
15NM E FENWICK I 1200   49 45              1004.7S   7/ 8
OCEAN-CITY-INLET 1200   54 47  280/  3/  4 1005.3R
WACHAPREAGUE VA  1200   59 50  240/  5/  6 1006.2R
THOMAS POINT MD  1200   50 42  310/ 20/ 23 1008.1R
GOOSES REEF MD   1200   46     VRB 10/ 12  1005.8R
COVE POINT MD    1200   47     340/  9/ 11 1007.1R
SOLOMONS ISLAND  1200      44                N/A
BISHOPS HEAD MD  1200   52 44   10/  6/ 13 1005.6F
PINEY POINT MD   1200          360/ 14/ 15   N/A
POTOMAC MD       1200   53     270/  8/ 10 1004.7R
CAMBRIDGE MD     1200   49 41  320/  6/  8 1006.3R
LEWISETTA VA     1200   54 44  340/ 16/ 23 1006.5R
RAPPAHANNOCK LGT 1200          190/  8/ 10 1005.6F
STINGRAY PT      1200   56     250/ 10/ 14 1007.1R
YORK RVR RNG VA  1200   58     250/ 14/ 19 1004.9R
YORKTOWN VA      1200   60 45  260/ 14/ 17 1006.7R
JAMESTOWN VA     1200   57     300/ 12/ 17   N/A
DOMINION TERM VA 1200   56     280/  9/ 10 1006.8R
KIPTOPEKE VA     1200      51  240/  3/  7   N/A
CHES BAY BRIDGE  1200   59 46  170/  5/  6 1005.7F
CAPE HENRY VA    1200   63     190/  5/  6 1005.1F
CHESAPEAKE LGHT  1100   63     240/ 16/ 17 1006.4R
WILLOUBY STN VA  1200   57     240/  9/ 13 1007.1R
S CRANEY ISL VA  1200          250/  7/  8 1006.7R
CAPE HENRY BUOY  1200      48                N/A     4/ 7
1ST LANDING BUOY 1200   52     270/  4/  6 1006.2S
CAPE CHARLES BUO 1200      47                N/A     3/ 8   2/ 8
64NM E OF VA BCH 1200   56 53  210/ 10/ 12 1006.9R   6/ 7   5/ 7
DUCK PIER NC     1200   62 50  220/ 10/ 14 1007.2R
44100 DUCK FRF   1200      50                N/A     4/ 7   2/11
44056 DUCK FRF   1200      50                N/A     3/ 7
OREGON INLET NC  1200   55 54  190/ 14/ 16 1008.6R
HATTERAS NC      1200   60 57  220/  8/ 13 1009.9R
DIAMOND SHLS NC  1200   69                 1009.3R   7/ 8
CAPE LOOKOUT NC  1100   61     230/ 11/ 13 1009.5R
$$



USA.gov is the U.S. government's official web portal to all federal, state and local government web resources and services.